Regional Weather Roundup
Issued by NWS

Home | Current Version | Previous Version | Graphics & Text | Print | Product List | Glossary On
Versions: 1 2 3 4 5 6 7 8 9 10 11 12 13 14 15 16 17 18 19 20 21 22 23 24 25 26 27 28 29 30 31 32 33 34 35 36 37 38 39 40 41 42 43 44 45 46 47 48 49 50
000
ASUS45 KSLC 260310
RWRUT

UTAH REGIONAL WEATHER ROUNDUP
NATIONAL WEATHER SERVICE SALT LAKE CITY UT
900 PM MDT FRI JUL 25 2014

UTZ001>011-023>025-260400-

NORTHERN UTAH

CITY           SKY/WX    TMP DP  RH WIND       PRES   REMARKS
HILL AFB       CLEAR     83  36  18 S5        30.00R
LOGAN          CLEAR     73  49  42 N7        29.98R
OGDEN          CLEAR     85  32  15 CALM      29.95R
PROVO AIRPORT  PTCLDY    81  64  57 CALM      29.99R
SALT LAKE CITY PTCLDY    84  41  21 W6        29.95R
VERNAL         MOCLDY    83  44  25 SW10G26   30.05R
WENDOVER       CLEAR     88  32  13 SE3       29.95R
HEBER CITY     PTCLDY    73  43  33 SE9       30.07R
WEST JORDAN    CLEAR     86  48  26 CALM      30.00R

$$

UTZ012>022-026-027-260400-

SOUTHERN UTAH

CITY           SKY/WX    TMP DP  RH WIND       PRES   REMARKS
BRYCE CANYON   CLOUDY    68  46  45 SW5       30.34R
CEDAR CITY     CLOUDY    81  43  26 S13G22    30.12R
MILFORD        MOCLDY    84  46  26 S14       30.05R
MOAB/CYNLANDS  CLEAR     88  43  20 W20       30.01R
PRICE          CLOUDY    79  46  31 S14       30.14R
ST GEORGE      PTCLDY    91  52  25 E7        29.94R

$$

REGIONAL REPORTS     COLORADO/ARIZONA

CITY           SKY/WX    TMP DP  RH WIND       PRES   REMARKS
CRAIG, CO      MOCLDY    61  53  75 E7        30.20R
GRAND JUNCTION PTCLDY    73  61  65 E5        30.05R
RIFLE          PTCLDY    75  47  36 S5        30.13R
MONTROSE       CLEAR     74  53  48 SE3       30.16R
CORTEZ         CLEAR     78  44  29 S5        30.14R
PAGE, AZ       MOCLDY    89  50  26 VRB3      30.05R
GRAND CANYON   MOCLDY    72  46  39 SW3       30.30R
KINGMAN        MOCLDY    87  55  33 NE14      30.03R
FLAGSTAFF      CLOUDY    73  47  39 SW18      30.35R

$$

REGIONAL REPORTS    NEVADA/IDAHO/WYOMING

CITY           SKY/WX    TMP DP  RH WIND       PRES   REMARKS
LAS VEGAS, NV  MOCLDY    99  52  20 S17G28    29.81R HX  96
ELY            CLEAR     83  14   7 S14       30.09R
ELKO           CLEAR     84  19   9 W6        30.02R
POCATELLO, ID  CLEAR     77  32  19 SW12      30.03S
BURLEY         CLEAR     71  41  33 SW8       30.02R
EVANSTON, WY   CLEAR     73  32  22 NW8       30.19R
ROCK SPRINGS   CLEAR     77  24  14 NW12      30.15R

$$


USA.gov is the U.S. government's official web portal to all federal, state and local government web resources and services.